Pasco, WA

4:22 AM PST on February 23, 2017 (GMT -0800)
Tri-Cities

Weather History for KPSC - April, 2013

Change the Weather History Date:

Saturday, April 6, 2013

  Actual Average Record
Temperature  
Mean Temperature 57 °F 51 °F  
Max Temperature 63 °F 65 °F 80 °F (1996)
Min Temperature 50 °F 38 °F 26 °F (1997)
Degree Days  
Heating Degree Days 8 14  
Month to date heating degree days 47 85  
Since 1 July heating degree days 4230 4546  
Cooling Degree Days 0 0  
Month to date cooling degree days 0 0  
Year to date cooling degree days 0 0  
Growing Degree Days 6 (Base 50)    
Moisture  
Dew Point 40 °F    
Average Humidity 63    
Maximum Humidity 89    
Minimum Humidity 36    
Precipitation  
Precipitation 0.02 in 0.03 in 0.95 in (1969)
Month to date precipitation 0.20 0.15  
Year to date precipitation 0.91 3.02  
Snow  
Snow 0.00 in - - ()
Snow Depth 0.00 in    
Sea Level Pressure  
Sea Level Pressure 29.89 in    
Wind  
Wind Speed 11 mph (SW)    
Max Wind Speed 33 mph    
Max Gust Speed 40 mph    
Visibility 10 miles    
Events Rain    
T = Trace of Precipitation, MM = Missing Value Source: NWS Daily Summary

Daily Weather History Graph

Daily Weather History Graph

Search for Another Location

Airport or City:

Trip Planner

Search our weather history database for the weather conditions in past years. The results will help you decide how hot, cold, wet, or windy it might be!

Date:

Astronomy

Apr. 06, 2013 Rise Set
Actual Time 6:25 AM PDT 7:32 PM PDT
Civil Twilight 5:55 AM PDT 8:03 PM PDT
Nautical Twilight 5:18 AM PDT 8:40 PM PDT
Astronomical Twilight 4:39 AM PDT 9:19 PM PDT
Moon 4:24 AM PDT (4/6) 3:55 PM PDT (4/6)
Length of Visible Light 14h 07m
Length of Day
13h 06m
Waning Crescent, 14% of the Moon is Illuminated
Apr 6
Waning Crescent
Apr 10
New
Apr 18
First Quarter
Apr 25
Full
May 2
Last Quarter

Hourly Weather History & Observations

Time (PDT) Temp. Dew Point Humidity Pressure Visibility Wind Dir Wind Speed Gust Speed Precip Events Conditions
12:53 AM 53.1 °F 46.0 °F 77% 29.85 in 10.0 mi ESE 6.9 mph - N/A   Overcast
1:53 AM 52.0 °F 46.0 °F 80% 29.84 in 10.0 mi Calm Calm - N/A   Overcast
2:53 AM 51.1 °F 48.0 °F 89% 29.83 in 10.0 mi East 3.5 mph - 0.00 in   Overcast
3:53 AM 52.0 °F 48.0 °F 86% 29.81 in 10.0 mi SSE 6.9 mph - N/A   Mostly Cloudy
4:53 AM 51.1 °F 46.9 °F 86% 29.83 in 10.0 mi WSW 4.6 mph - N/A   Overcast
5:53 AM 51.1 °F 45.0 °F 80% 29.86 in 10.0 mi WSW 4.6 mph - N/A   Overcast
6:53 AM 52.0 °F 44.1 °F 74% 29.88 in 10.0 mi SW 12.7 mph - 0.00 in   Overcast
7:53 AM 53.1 °F 41.0 °F 64% 29.89 in 10.0 mi WSW 15.0 mph - N/A   Overcast
8:53 AM 55.9 °F 39.9 °F 55% 29.91 in 10.0 mi WSW 20.7 mph 27.6 mph N/A   Mostly Cloudy
9:53 AM 57.9 °F 39.9 °F 51% 29.91 in 10.0 mi WSW 17.3 mph 21.9 mph N/A   Scattered Clouds
10:53 AM 57.9 °F 37.0 °F 46% 29.92 in 10.0 mi WSW 23.0 mph - N/A   Overcast
11:53 AM 52.0 °F 45.0 °F 77% 29.95 in 8.0 mi West 16.1 mph 31.1 mph 0.01 in Rain Light Rain
12:53 PM 60.1 °F 37.9 °F 44% 29.94 in 10.0 mi WSW 25.3 mph 35.7 mph 0.01 in   Mostly Cloudy
1:53 PM 62.1 °F 36.0 °F 38% 29.93 in 10.0 mi SW 23.0 mph 28.8 mph N/A   Scattered Clouds
2:53 PM 61.0 °F 35.1 °F 38% 29.93 in 10.0 mi WSW 21.9 mph 31.1 mph N/A   Mostly Cloudy
3:53 PM 62.1 °F 36.0 °F 38% 29.91 in 10.0 mi SW 19.6 mph - N/A   Overcast
4:53 PM 60.1 °F 34.0 °F 38% 29.90 in 10.0 mi WSW 16.1 mph 27.6 mph N/A   Mostly Cloudy
5:53 PM 57.9 °F 33.1 °F 39% 29.90 in 10.0 mi SW 20.7 mph 29.9 mph N/A   Mostly Cloudy
6:53 PM 57.0 °F 34.0 °F 42% 29.90 in 10.0 mi SW 16.1 mph - N/A   Mostly Cloudy
7:53 PM 55.0 °F 35.1 °F 47% 29.90 in 10.0 mi SW 11.5 mph - N/A   Overcast
8:53 PM 53.1 °F 37.9 °F 57% 29.90 in 10.0 mi SW 11.5 mph - N/A   Overcast
9:53 PM 52.0 °F 37.9 °F 59% 29.89 in 10.0 mi SSW 10.4 mph - 0.00 in   Overcast
10:53 PM 51.1 °F 39.9 °F 66% 29.87 in 10.0 mi South 10.4 mph - 0.00 in Rain Light Rain
11:53 PM 51.1 °F 39.9 °F 66% 29.84 in 10.0 mi South 10.4 mph - 0.00 in   Overcast